Погода в Сретенске

Погода в Сретенске : погода сейчас, прогноз погоды и архив. Всё, что Вы хотите узнать о погоде в Сретенске!

Хотите узнать прогноз погоды в Сретенске? Тогда Вам сюда: Погода в Сретенске

Поиск расширенной информации на нашем сайте:

Полезная информация: Календарь на 2016 Год

Другие новости

Новости СМИ2

Главная страница сайта

Новости сайта

02.10.2013

Напоминаем, что на нашем новом сайте вы можете получить высокодетализированные прогнозы погоды по пунктам России, СНГ и мира (включающие важные для авиации метеовеличины, такие как направление и скорость ветра, видимость, явления погоды, количество и форма облачности, нижняя и верхняя граница облачности), а также ознакомиться с разнообразными материалами по авиационной метеорологии и подборкой полезных ссылок на эту тему.

Сайт Метеоцентр.Азия посвящён разработке технологий оптимизации авиаметеорологического обслуживания, включая проектирование и перспективное создание нескольких автоматизированных авиаметеорологических систем:
- система выпуска высокодетальных прогностических карт явлений погоды для нижнего воздушного пространства по России и ближнему зарубежью;
- система верификации прогнозов TAF (выпускаемых синоптиками официальных АМСГ РФ и ближнего зарубежья) и AUTOTAF (выпускаемых сайтом Метеоцентр.Азия) - выявление ошибок, онлайн-сопоставление с фактической погодой METAR, автоматическое внесение коррективов в прогнозы при резком отклонении фактической погоды от прогноза, подсчёт оправдываемости прогнозов по элементам и в целом;
- система обработки, анализа и отображения авиаметеорологической информации для применения провайдерами метеорологической информации.

Рекомендуем: Смотрите информацию кокосовое масло купить на сайте.

Погода в Сретенске - сегодня

Время (UTC), дата Ветер
(°,м/с) 
Видим.   Явления Облачность Т
(°С)
Тd
(°С)
f(%) Тe
(°С)
Pmin
(гПа)
dP
(гПа)
Po
(мм)
O2
(г/м3)
Тmin Tmax R s Состояние
почвы
18 27.04.17 240 (ЮЗ) 20000 м    ясно 
+4.4 -4.7 52 +4  1006.8  0.4  708  281           
21 27.04.17 220 (ЮЗ) 20000 м    4/0 верхняя 
[Ci sp]
+4.7 -5 49 +4  1007.2  0.4  708  281           
00 28.04.17 220 (ЮЗ) 20000 м    10/0 верхняя 
[Cs]
+9.3 -4.1 39 +9  1007  0.8  709  277  +0.8        влажная 
03 28.04.17 290 (З) 20000 м    10/0 средняя, верхняя 
[Ac As|Cs]
+14.7 -4.5 26 +14  1003.6  -2.1  707  271           
06 28.04.17 280 (З) 5-10{11}  20000 м    10/1 1000 м верхняя 
[Cu hum|Ci sp]
+17.5 -4.2 22 +18  998.8  -3.9  704  267           
09 28.04.17 260 (З) 6{12}  20000 м    10/0 верхняя 
[Ci sp]
+19.5 -2.5 22 +20  992.8  -5.3  700  264           
12 28.04.17 330 (СЗ) 20000 м    10/0 средняя, верхняя 
[Ac trans|Ci sp]
+17.3 -3.3 24 +19  989.1  -3.8  698  265    +20.1       
15 28.04.17 320 (СЗ) 10-19{19}  20000 м    8/0 средняя, верхняя 
[Ac trans|Ci sp]
+19 -7 16 +19  989.6  0.7  698  264           
18 28.04.17 290 (З) 5{20}  20000 м    4/0 верхняя 
[Ci sp]
+14.6 -4 27 +14  990.9  0.4  698  267           
21 28.04.17 330 (СЗ) 6-11{15}  20000 м    ясно 
+11.4 -7.1 27 +10  994.3  2.5  700  271           
00 29.04.17 360 (С) 7-13{19}  20000 м    3/1 1000 м верхняя 
[Cu med, cong|Ci sp]
+10.1 -10.8 22 +8  998.2  3.4  703  274  +9.9        сухая 
03 29.04.17 350 (С) 8-16{18}  20000 м    4/3 1000 м верхняя 
[Cu med, cong|Ci sp]
+10.4 -9.4 24 +8  1001.5  3.1  705  274  +9.9         
06 29.04.17 350 (С) 6-10{18}  20000 м    8/4 1000 м верхняя 
[Cu med, cong|Ci sp]
+13 -8.7 21 +12  1003.1  2.1  707  273           
09 29.04.17 360 (С) 4{14}  20000 м    8/4 1000 м верхняя 
[Cu med, cong|Ci sp]
+12.8 -10 19 +12  1004.7  1.5  708  273           
12 29.04.17 050 (СВ) 2{10}  20000 м    1/0 верхняя 
[Ci fib]
+9.4 -10.8 23 +9  1008.6  2.9  710  277    +13.4       
15 29.04.17 070 (В) 20000 м    ясно 
+4.8 -10.1 33 +4  1011.4  1.7  711  282           
18 29.04.17 060 (СВ) 20000 м    ясно 
-0.9 -8 59 1014.4  1.5  712  289           
21 29.04.17 040 (СВ) 20000 м    1/0 верхняя 
[Ci sp]
-3.3 -8.2 69 -3  1016.9  1.8  714  292           
00 30.04.17 030 (СВ) 20000 м    1/0 верхняя 
[Ci fib]
+2.8 -5.6 54 +4  1015.8  0.4  714  285  -4        сухая 
03 30.04.17 350 (С) 20000 м    8/0 верхняя 
[Ci sp]
+13.3 -9.1 20 +15  1011.1  -2.2  712  274           
06 30.04.17 270 (З) 20000 м    6/0 верхняя 
[Ci fib]
+18.6 -10.1 13 +20  1005.9  -3.7  710  268           
09 30.04.17 280 (З) 8-12{13}  20000 м    8/0 верхняя 
[Ci sp]
+19.7 -9.4 13 +20  1003.6  -1.9  708  267           
12 30.04.17 200 (Ю) 3{12}  20000 м    6/3 1000 м верхняя 
[Sc|Ci sp]
+15.7 -7.4 20 +16  1004.1  -0.3  708  270    +20.4       
15 30.04.17 230 (ЮЗ) 20000 м    3/3 1000 м 
[Sc]
+11.9 -1.4 40 +12  1006  1.1  709  274           
18 30.04.17 230 (ЮЗ) 20000 м    3/3 1000 м 
[Sc]
+6.1 -2.2 55 +7  1007.8  0.4  709  280           
Время (UTC), дата Ветер
(°,м/с) 
Видим.   Явления Облачность Т
(°С)
Тd
(°С)
f(%) Тe
(°С)
Pmin
(гПа)
dP
(гПа)
Po
(мм)
O2
(г/м3)
Тmin Tmax R s Состояние
почвы

Для получения пояснительной информации подведите курсор к названию столбца.

ПОГОДА в Сретенске - архив

Всё, что Вы хотите узнать о погоде в Сретенске - удобно и подробно!

Выберите нужную дату (начиная с 1 января 2015* года) и нажмите кнопку "Найти".
Будут отображены архивные сводки погоды по пункту Сретенск, начиная с указанной даты.


Отображать данные в формате CSV (для использования в таблицах Excel)


Внимание! Наш архив погоды предназначен исключительно для личного некоммерческого использования в познавательных целях. Если Вам необходимы официальные справки о состоянии погоды (для производственных, юридических, коммерческих и т.п. целей), обращайтесь в органы Росгидромета.

*Примечание: данная дата относится к архиву по метеостанциям СССР (Россия, СНГ, Балтия).
Архив по метеостанциям Зарубежной Европы и Азии (кроме Китая) хранится 10 дней, по другим регионам земного шара (Китай, Африка, Америка, Австралия, Океания) - 1 день.

Сретенск - район местоположения метеостанции


Название, широта, долгота, высота метеостанции:
Сретенск 52.2°ш. 117.7°д. 525 м над ур. моря [Российская Федерация]

Дополнительная информация

В oтличие oт бoльшинства пoгoдных сайтoв мы публикуем пoдрoбную метеoинфoрмацию в детальнoм прoфессиoнальнoм фoрмате.

Характеристики температуры и влажнoсти вoздуха измеряются на высoте 2 м в тени вдали oт зданий и деревьев.
Скoрoсть ветра измеряется на высoте 10 м (на урoвне рoста челoвека скoрoсть ветра ниже в 1.5-2 раза). Если метеoстанция нахoдится в гoрoде или в лесу, тo скoрoсть ветра занижена на 2-4 м/с пo сравнению с oткрытым местoм. Скoрoсть ветра над акватoриями крупных рек и oзёр, а также на вершинах хoлмoв на 2-5 м/с выше, чем в oбычных услoвиях.
Атмoсфернoе давление в разных тoчках местнoсти мoжет значительнo oтличаться oт давления на метеoстанции, в зависимoсти oт услoвий рельефа (при пoдъёме на 10 м давление пoнижается примернo на 1 мм рт.ст.).